Tracking 23752 objects as of 23-Oct-2021
HD Live streaming from Space Station
objects crossing your sky now

CZ-3C DEB

Track CZ-3C DEB now!


NORAD ID: 40857
Int'l Code: 2012-008X
Perigee: 749.5 km
Apogee: 36,219.5 km
Inclination: 19.9 °
Period: 650.0 minutes
Semi major axis: 24855 km
RCS: Unknown
Launch date: February 24, 2012
Source: People's Republic of China (PRC)
Launch site: Xichang Space Center, China (XSC)

Note: This is SATELLITE DEBRIS
aabbcc
Your satellite tracking list
Your tracking list is empty




NASA's NSSDC Master Catalog

Two Line Element Set (TLE):
1 40857U 12008X   21293.44013034 -.00000250  00000-0 -61333-2 0  9998
2 40857  19.9092 283.1851 7135252 180.4981 177.9320  2.21548732 56004
Source of the keplerian elements: AFSPC